Location: Broekland
(52.3610°N, 6.2005°E)
Time: 00:37:06
(UTC+00:00)

Cosmos 405 Rocket - Pass Details

Date: 19 May 2025
Orbit: 413 x 447 km, 81.2° (Epoch: 22 June)

Event Time Altitude Azimuth Distance (km) Brightness Sun altitude
Rises 23:11:39 0° 334° (NNW) 2,462 7.5 -17.5°
Maximum altitude 23:16:35 18° 271° (W) 1,164 4.5 -17.6°
Enters shadow 23:17:34 16° 249° (WSW) 1,238 4.4 -17.6°
